Content
SEND FEEDBACK

Daily
Averages
Monthly
Summary
United States of America

ST. LOUIS, MISSOURI


Home > North America > United States > Missouri
Elevation: 535 feet     Latitude: 38 45N     Longitude: 090 22W

WEATHER
 
SELECT A DAY
Number of Records: 196,649;   Date Range: 1/1/95 - 9/18/14
 
SHARE

PRINT THIS DATA

[ ← Previous Day ]
WEATHER ALMANAC - MAY 10, 2013
[ Next Day → ]
[ °C ]   °F
Weather ElementAverageHighLow
Temperature61.2 °F64.9 °F (9:54 am)55.9 °F (10:54 pm)
Dewpoint54.9 °F59 °F (1:54 am)50 °F (9:54 pm)
Humidity79.9 %90 % (5:54 am)70 % (1:54 pm)
Barometer29.92 in30.01 in (10:36 pm)29.83 in (2:54 am)
Wind Speed7.9 mph13.8 mph (11:54 am)
Wind Gust18.4 mph (4:26 pm)
Weather ElementAverage
Visibility9.7 mi
Wind DirectionWNW (288.1 °)

Weather ElementTotal
Precipitation---
Heating Degree Days4.6 (Base 65)
Growing Degree Days10.4 (Base 50)
Averaged from 31 records on May 10, 2013
WEATHER CONDITIONS BREAKOUT
WIND DIRECTION BREAKOUT
WEATHER BY HOUR - MAY 10, 2013
[ °C ]   °F
Local TimeTemperatureDewpointHumidityBarometerVisibilityWind DirectionWind SpeedGust SpeedPrecipitationEventsConditions
1:54 AM64.0 °F59.0 °F84 %29.86 in10.0 miCalm0.00 inPartly Cloudy
2:54 AM63.0 °F57.9 °F84 %29.83 in10.0 miSW (230°)4.6 mphClear
3:54 AM62.1 °F57.9 °F86 %29.84 in10.0 miWSW (250°)5.8 mphClear
4:54 AM61.0 °F57.0 °F87 %29.84 in10.0 miSW (230°)3.5 mphClear
5:54 AM59.0 °F55.9 °F90 %29.85 in10.0 miSW (220°)3.5 mphMostly Cloudy
6:54 AM60.8 °F57.2 °F88 %29.88 in10.0 miCalmOvercast
7:54 AM62.6 °F57.2 °F82 %29.88 in10.0 miWest (260°)5.8 mphMostly Cloudy
8:54 AM64.0 °F57.9 °F80 %29.89 in10.0 miNNW (340°)6.9 mphMostly Cloudy
9:23 AM64.4 °F57.2 °F77 %29.90 in10.0 miNNW (340°)6.9 mphOvercast
9:54 AM64.9 °F57.9 °F78 %29.89 in10.0 miNNW (330°)8.1 mphOvercast
10:54 AM64.0 °F57.0 °F78 %29.91 in10.0 miNNW (330°)9.2 mphOvercast
11:54 AM64.4 °F57.2 °F77 %29.92 in10.0 miNW (320°)13.8 mphOvercast
12:54 PM64.0 °F55.0 °F73 %29.91 in10.0 miWNW (300°)10.4 mphOvercast
1:54 PM64.9 °F55.0 °F70 %29.91 in10.0 miWNW (300°)6.9 mphOvercast
2:54 PM64.0 °F55.0 °F73 %29.93 in10.0 miWNW (290°)10.4 mphOvercast
3:01 PM64.4 °F55.4 °F73 %29.93 in10.0 miWNW (300°)10.4 mphOvercast
3:20 PM62.6 °F55.4 °F77 %29.93 in10.0 miNW (320°)12.7 mphOvercast
3:54 PM60.1 °F55.9 °F86 %29.94 in10.0 miNW (310°)11.5 mph0.00 inOvercast
4:26 PM60.8 °F55.4 °F82 %29.94 in6.0 miNNW (340°)11.5 mph18.4 mphHaze
4:54 PM59.0 °F55.4 °F88 %29.95 in4.0 miNW (320°)11.5 mphOvercast
5:54 PM60.1 °F54.0 °F80 %29.95 in10.0 miNW (320°)12.7 mph18.4 mphOvercast
6:51 PM60.8 °F53.6 °F77 %29.97 in10.0 miNNW (330°)5.8 mphOvercast
6:54 PM60.1 °F53.1 °F78 %29.96 in10.0 miNNW (340°)6.9 mphOvercast
7:07 PM59.0 °F53.6 °F82 %29.97 in10.0 miNW (320°)9.2 mphOvercast
7:40 PM59.0 °F51.8 °F77 %29.96 in10.0 miNNW (340°)9.2 mph0.00 inOvercast
7:54 PM59.0 °F52.0 °F78 %29.96 in10.0 miNNW (330°)10.4 mph0.00 inOvercast
8:54 PM57.9 °F51.1 °F78 %29.97 in10.0 miNNW (340°)9.2 mphOvercast
9:54 PM57.0 °F50.0 °F77 %29.99 in10.0 miNW (320°)5.8 mphOvercast
10:36 PM57.2 °F50.0 °F77 %30.01 in10.0 miNW (320°)9.2 mphOvercast
10:54 PM55.9 °F50.0 °F80 %30.00 in10.0 miNW (320°)8.1 mphOvercast
11:54 PM55.9 °F50.0 °F80 %30.00 in10.0 miNW (320°)5.8 mphOvercast
Hourly data recorded from KSUS, located miles away from St. Louis, Missouri







STORIES FROM OUR PARTNERS